BAW844 EFHK-EGLL

Flight info

Callsign BAW844
Flight time 2h 30m
Altitude 38000
Route NUNTO Y369 REKDO DCT KOSKA DCT KESUR DCT SPY DCT ABNED L980 LOGAN
Aircraft B77W/H-SDE1E2E3FGHIJ2J3J4J5M1RWXY/LB1D1

Departure

Time 2026-05-07 12:35
Airport Helsinki Vantaa Airport (EFHK)

Arrival

Time 2026-05-07 15:06
Airport London Heathrow Airport (EGLL)
Time Latitude Longitude Altitude Speed Heading
2026-05-07 12:07 60.31514 24.95708 171 ft 0 kts 137°
2026-05-07 12:24 60.31531 24.95677 171 ft 4 kts 137°
2026-05-07 12:25 60.31550 24.95641 171 ft 3 kts 137°
2026-05-07 12:25 60.31563 24.95615 171 ft 4 kts 86°
2026-05-07 12:25 60.31553 24.95576 171 ft 3 kts 47°
2026-05-07 12:25 60.31535 24.95536 171 ft 4 kts 47°
2026-05-07 12:26 60.31527 24.95519 171 ft 0 kts 47°
2026-05-07 12:29 60.31528 24.95522 171 ft 1 kts 47°
2026-05-07 12:29 60.31532 24.95530 171 ft 2 kts 47°
2026-05-07 12:29 60.31580 24.95630 171 ft 20 kts 41°
2026-05-07 12:30 60.31694 24.95825 171 ft 26 kts 47°
2026-05-07 12:30 60.31798 24.96054 171 ft 18 kts 47°
2026-05-07 12:30 60.31892 24.96088 172 ft 14 kts 324°
2026-05-07 12:30 60.31967 24.95955 176 ft 14 kts 317°
2026-05-07 12:31 60.32041 24.95819 179 ft 14 kts 317°
2026-05-07 12:31 60.32120 24.95674 177 ft 17 kts 317°
2026-05-07 12:31 60.32212 24.95502 179 ft 18 kts 317°
2026-05-07 12:31 60.32310 24.95324 181 ft 19 kts 322°
2026-05-07 12:32 60.32435 24.95212 183 ft 20 kts 341°
2026-05-07 12:32 60.32565 24.95127 195 ft 20 kts 342°
2026-05-07 12:32 60.32709 24.95032 184 ft 24 kts 342°
2026-05-07 12:32 60.32867 24.94926 179 ft 23 kts 338°
2026-05-07 12:33 60.33107 24.94517 204 ft 17 kts 315°
2026-05-07 12:33 60.33108 24.94378 209 ft 10 kts 234°
2026-05-07 12:33 60.33072 24.94296 206 ft 0 kts 227°
2026-05-07 12:35 60.32994 24.94127 208 ft 61 kts 227°
2026-05-07 12:35 60.32419 24.92870 206 ft 179 kts 226°
2026-05-07 12:35 60.31492 24.90819 1269 ft 208 kts 227°
2026-05-07 12:36 60.30461 24.88558 2776 ft 225 kts 226°
2026-05-07 12:36 60.29601 24.85887 3531 ft 240 kts 263°
2026-05-07 12:36 60.30177 24.82760 4122 ft 253 kts 319°
2026-05-07 12:36 60.31646 24.80894 5039 ft 252 kts 329°
2026-05-07 12:37 60.32924 24.78489 5938 ft 260 kts 298°
2026-05-07 12:37 60.33261 24.74984 7018 ft 265 kts 265°
2026-05-07 12:37 60.32783 24.71376 8092 ft 269 kts 249°
2026-05-07 12:37 60.31974 24.67948 9167 ft 271 kts 243°
2026-05-07 12:38 60.31082 24.64592 10258 ft 274 kts 242°
2026-05-07 12:38 60.30147 24.61152 10959 ft 290 kts 242°
2026-05-07 12:38 60.29122 24.57384 11233 ft 321 kts 242°
2026-05-07 12:38 60.28005 24.53264 11529 ft 348 kts 242°
2026-05-07 12:39 60.26829 24.48906 12440 ft 356 kts 242°
2026-05-07 12:39 60.25646 24.44499 13564 ft 359 kts 243°
2026-05-07 12:39 60.24457 24.40052 14663 ft 361 kts 243°
2026-05-07 12:39 60.23265 24.35586 15683 ft 364 kts 243°
2026-05-07 12:40 60.22067 24.31093 16712 ft 367 kts 243°
2026-05-07 12:40 60.20853 24.26544 17695 ft 371 kts 243°
2026-05-07 12:40 60.19640 24.22002 18630 ft 375 kts 243°
2026-05-07 12:40 60.18403 24.17378 19515 ft 377 kts 243°
2026-05-07 12:41 60.17156 24.12723 20410 ft 379 kts 242°
2026-05-07 12:41 60.15901 24.08051 21283 ft 381 kts 243°
2026-05-07 12:41 60.14633 24.03337 22125 ft 385 kts 242°
2026-05-07 12:41 60.13355 23.98594 22955 ft 388 kts 242°
2026-05-07 12:42 60.12065 23.93819 23787 ft 390 kts 242°
2026-05-07 12:42 60.10765 23.89020 24473 ft 392 kts 242°
2026-05-07 12:42 60.09459 23.84206 25147 ft 394 kts 242°
2026-05-07 12:42 60.08142 23.79365 25803 ft 397 kts 242°
2026-05-07 12:43 60.06814 23.74491 26306 ft 401 kts 242°
2026-05-07 12:43 60.05470 23.69570 26869 ft 404 kts 242°
2026-05-07 12:43 60.04133 23.64686 27506 ft 406 kts 242°
2026-05-07 12:43 60.02772 23.59726 28104 ft 408 kts 241°
2026-05-07 12:44 60.01386 23.54682 28678 ft 410 kts 241°
2026-05-07 12:44 60.00017 23.49715 29181 ft 412 kts 241°
2026-05-07 12:44 59.98626 23.44677 29659 ft 415 kts 241°
2026-05-07 12:44 59.97228 23.39623 30217 ft 414 kts 241°
2026-05-07 12:45 59.95833 23.34593 30737 ft 413 kts 241°
2026-05-07 12:45 59.94438 23.29576 31194 ft 413 kts 241°
2026-05-07 12:45 59.93040 23.24557 31615 ft 414 kts 241°
2026-05-07 12:45 59.91659 23.19607 32042 ft 414 kts 241°
2026-05-07 12:46 59.90254 23.14587 32476 ft 414 kts 241°
2026-05-07 12:46 59.88848 23.09572 32893 ft 414 kts 241°
2026-05-07 12:46 59.87440 23.04563 33233 ft 415 kts 241°
2026-05-07 12:46 59.86028 22.99547 33662 ft 415 kts 241°
2026-05-07 12:47 59.84617 22.94547 34051 ft 417 kts 241°
2026-05-07 12:47 59.83190 22.89504 34290 ft 419 kts 241°
2026-05-07 12:47 59.81754 22.84438 34582 ft 420 kts 241°
2026-05-07 12:47 59.80316 22.79377 34848 ft 421 kts 241°
2026-05-07 12:48 59.78870 22.74300 35097 ft 423 kts 241°
2026-05-07 12:48 59.77417 22.69209 35355 ft 424 kts 241°
2026-05-07 12:48 59.75960 22.64114 35619 ft 425 kts 241°
2026-05-07 12:48 59.74494 22.58999 35878 ft 426 kts 241°
2026-05-07 12:49 59.73020 22.53870 36125 ft 428 kts 241°
2026-05-07 12:49 59.71545 22.48746 36383 ft 429 kts 241°
2026-05-07 12:49 59.70062 22.43608 36636 ft 430 kts 241°
2026-05-07 12:49 59.68576 22.38470 36877 ft 430 kts 241°
2026-05-07 12:50 59.67087 22.33331 37131 ft 431 kts 241°
2026-05-07 12:50 59.65591 22.28184 37371 ft 432 kts 241°
2026-05-07 12:50 59.64090 22.23028 37601 ft 433 kts 241°
2026-05-07 12:50 59.62603 22.17933 37833 ft 434 kts 241°
2026-05-07 12:51 59.61089 22.12756 38001 ft 436 kts 240°
2026-05-07 12:51 59.59565 22.07556 38045 ft 439 kts 240°
2026-05-07 12:51 59.56496 21.97124 38099 ft 438 kts 240°
2026-05-07 12:52 59.53437 21.86771 38085 ft 434 kts 240°
2026-05-07 12:52 59.50403 21.76545 38058 ft 431 kts 240°
2026-05-07 12:53 59.47369 21.66356 38086 ft 431 kts 240°
2026-05-07 12:53 59.44327 21.56194 38091 ft 431 kts 240°
2026-05-07 12:54 59.41335 21.45962 38090 ft 433 kts 241°
2026-05-07 12:54 59.38381 21.35720 38096 ft 434 kts 241°
2026-05-07 12:55 59.35381 21.25386 38099 ft 436 kts 241°
2026-05-07 12:55 59.32352 21.15028 38098 ft 437 kts 241°
2026-05-07 12:56 59.29338 21.04778 38114 ft 437 kts 241°
2026-05-07 12:56 59.26293 20.94466 38103 ft 438 kts 241°
2026-05-07 12:57 59.23233 20.84147 38098 ft 439 kts 240°
2026-05-07 12:57 59.20162 20.73830 38097 ft 439 kts 240°
2026-05-07 12:58 59.17059 20.63557 38099 ft 439 kts 239°
2026-05-07 12:58 59.13832 20.53462 38103 ft 439 kts 239°
2026-05-07 12:59 59.10592 20.43476 38096 ft 438 kts 239°
2026-05-07 12:59 59.07344 20.33452 38098 ft 437 kts 239°
2026-05-07 13:00 59.04092 20.23423 38103 ft 437 kts 239°
2026-05-07 13:00 59.00862 20.13484 38104 ft 437 kts 239°
2026-05-07 13:01 58.97606 20.03508 38105 ft 438 kts 239°
2026-05-07 13:01 58.94888 19.95209 38101 ft 439 kts 239°
2026-05-07 13:02 58.91609 19.85243 38078 ft 439 kts 238°
2026-05-07 13:02 58.88319 19.75285 38098 ft 439 kts 238°
2026-05-07 13:03 58.85011 19.65313 38105 ft 440 kts 238°
2026-05-07 13:03 58.81717 19.55428 38104 ft 440 kts 238°
2026-05-07 13:04 58.78388 19.45477 38105 ft 441 kts 238°
2026-05-07 13:04 58.75055 19.35557 38103 ft 441 kts 238°
2026-05-07 13:05 58.71711 19.25646 38079 ft 441 kts 238°
2026-05-07 13:05 58.68363 19.15765 38117 ft 441 kts 238°
2026-05-07 13:06 58.64996 19.05871 38105 ft 442 kts 238°
2026-05-07 13:06 58.61647 18.96068 38104 ft 442 kts 238°
2026-05-07 13:07 58.58265 18.86209 38103 ft 443 kts 238°
2026-05-07 13:07 58.54865 18.76343 38104 ft 443 kts 238°
2026-05-07 13:08 58.51461 18.66502 38075 ft 443 kts 238°
2026-05-07 13:08 58.48053 18.56692 38094 ft 443 kts 238°
2026-05-07 13:09 58.44633 18.46887 38106 ft 443 kts 237°
2026-05-07 13:09 58.41228 18.37167 38104 ft 443 kts 237°
2026-05-07 13:10 58.37791 18.27396 38098 ft 443 kts 237°
2026-05-07 13:10 58.34352 18.17658 38098 ft 443 kts 237°
2026-05-07 13:11 58.30905 18.07936 38077 ft 443 kts 237°
2026-05-07 13:11 58.27453 17.98240 38097 ft 443 kts 237°
2026-05-07 13:12 58.23984 17.88537 38104 ft 442 kts 237°
2026-05-07 13:12 58.20519 17.78883 38104 ft 443 kts 237°
2026-05-07 13:13 58.17063 17.69295 38102 ft 443 kts 237°
2026-05-07 13:13 58.13577 17.59662 38104 ft 443 kts 237°
2026-05-07 13:14 58.10086 17.50053 38080 ft 443 kts 236°
2026-05-07 13:14 58.06584 17.40454 38094 ft 444 kts 237°
2026-05-07 13:15 58.03061 17.30835 38120 ft 445 kts 236°
2026-05-07 13:15 57.99527 17.21226 38103 ft 446 kts 236°
2026-05-07 13:16 57.96002 17.11678 38094 ft 447 kts 236°
2026-05-07 13:16 57.92437 17.02063 38096 ft 448 kts 236°
2026-05-07 13:17 57.88863 16.92461 38069 ft 448 kts 236°
2026-05-07 13:17 57.85285 16.82886 38094 ft 448 kts 236°
2026-05-07 13:18 57.81701 16.73335 38096 ft 448 kts 236°
2026-05-07 13:18 57.78107 16.63794 38093 ft 448 kts 236°
2026-05-07 13:19 57.74500 16.54255 38076 ft 448 kts 236°
2026-05-07 13:19 57.70912 16.44807 38097 ft 448 kts 236°
2026-05-07 13:20 57.67309 16.35356 38072 ft 449 kts 236°
2026-05-07 13:20 57.63677 16.25863 38069 ft 449 kts 236°
2026-05-07 13:21 57.60031 16.16377 38069 ft 450 kts 236°
2026-05-07 13:21 57.56382 16.06916 38049 ft 450 kts 236°
2026-05-07 13:22 57.52720 15.97461 38071 ft 450 kts 235°
2026-05-07 13:22 57.49048 15.88017 38072 ft 450 kts 235°
2026-05-07 13:23 57.45398 15.78664 38054 ft 449 kts 235°
2026-05-07 13:23 57.41717 15.69272 38060 ft 450 kts 235°
2026-05-07 13:24 57.38014 15.59859 38048 ft 452 kts 235°
2026-05-07 13:24 57.34296 15.50444 38042 ft 452 kts 235°
2026-05-07 13:25 57.30572 15.41051 38049 ft 453 kts 235°
2026-05-07 13:25 57.26857 15.31718 38044 ft 453 kts 235°
2026-05-07 13:26 57.23108 15.22335 38041 ft 453 kts 234°
2026-05-07 13:26 57.19359 15.12990 38049 ft 453 kts 234°
2026-05-07 13:27 57.15597 15.03647 38050 ft 454 kts 234°
2026-05-07 13:27 57.11825 14.94316 38049 ft 454 kts 234°
2026-05-07 13:28 57.08043 14.84997 38048 ft 455 kts 234°
2026-05-07 13:28 57.04270 14.75736 38041 ft 455 kts 234°
2026-05-07 13:29 57.00467 14.66435 38048 ft 455 kts 234°
2026-05-07 13:29 56.96650 14.57139 38054 ft 456 kts 234°
2026-05-07 13:30 56.92821 14.47849 38052 ft 456 kts 234°
2026-05-07 13:30 56.89011 14.38641 38051 ft 456 kts 234°
2026-05-07 13:31 56.85168 14.29387 38059 ft 456 kts 234°
2026-05-07 13:31 56.81320 14.20157 38048 ft 456 kts 233°
2026-05-07 13:32 56.77471 14.10958 38064 ft 457 kts 233°
2026-05-07 13:32 56.73594 14.01731 38061 ft 458 kts 233°
2026-05-07 13:33 56.69716 13.92533 38069 ft 459 kts 233°
2026-05-07 13:33 56.65814 13.83315 38068 ft 459 kts 233°
2026-05-07 13:34 56.59962 13.69555 38064 ft 460 kts 233°
2026-05-07 13:35 56.56035 13.60369 38066 ft 460 kts 233°
2026-05-07 13:35 56.52106 13.51210 38079 ft 460 kts 233°
2026-05-07 13:36 56.48196 13.42129 38086 ft 460 kts 233°
2026-05-07 13:36 56.44253 13.33007 38088 ft 460 kts 233°
2026-05-07 13:37 56.40299 13.23892 38075 ft 460 kts 233°
2026-05-07 13:37 56.36337 13.14793 38087 ft 461 kts 232°
2026-05-07 13:38 56.32370 13.05718 38105 ft 461 kts 232°
2026-05-07 13:38 56.28388 12.96644 38109 ft 462 kts 232°
2026-05-07 13:39 56.24398 12.87584 38109 ft 462 kts 232°
2026-05-07 13:39 56.20393 12.78524 38103 ft 462 kts 232°
2026-05-07 13:40 56.16378 12.69475 38092 ft 463 kts 232°
2026-05-07 13:40 56.12363 12.60462 38115 ft 463 kts 232°
2026-05-07 13:41 56.08358 12.51502 38109 ft 464 kts 232°
2026-05-07 13:41 56.04317 12.42496 38105 ft 464 kts 232°
2026-05-07 13:42 56.00263 12.33495 38102 ft 465 kts 232°
2026-05-07 13:42 55.96202 12.24511 38092 ft 465 kts 231°
2026-05-07 13:43 55.92124 12.15524 38108 ft 465 kts 231°
2026-05-07 13:43 55.88046 12.06569 38105 ft 465 kts 231°
2026-05-07 13:44 55.83975 11.97662 38103 ft 466 kts 231°
2026-05-07 13:44 55.79879 11.88735 38113 ft 466 kts 231°
2026-05-07 13:45 55.75772 11.79817 38102 ft 467 kts 231°
2026-05-07 13:45 55.71648 11.70892 38102 ft 467 kts 231°
2026-05-07 13:46 55.68219 11.63498 38099 ft 467 kts 231°
2026-05-07 13:46 55.64081 11.54605 38101 ft 467 kts 231°
2026-05-07 13:47 55.59938 11.45733 38104 ft 468 kts 231°
2026-05-07 13:47 55.55789 11.36879 38107 ft 468 kts 231°
2026-05-07 13:48 55.51629 11.28038 38100 ft 468 kts 231°
2026-05-07 13:48 55.47485 11.19260 38107 ft 468 kts 231°
2026-05-07 13:49 55.43307 11.10442 38112 ft 468 kts 231°
2026-05-07 13:49 55.39122 11.01642 38106 ft 468 kts 231°
2026-05-07 13:50 55.34941 10.92882 38114 ft 468 kts 231°
2026-05-07 13:50 55.30741 10.84115 38106 ft 468 kts 231°
2026-05-07 13:51 55.26566 10.75430 38115 ft 468 kts 230°
2026-05-07 13:51 55.22351 10.66694 38110 ft 469 kts 230°
2026-05-07 13:52 55.18128 10.57970 38101 ft 469 kts 230°
2026-05-07 13:52 55.13926 10.49323 38101 ft 469 kts 230°
2026-05-07 13:53 55.09688 10.40633 38104 ft 469 kts 230°
2026-05-07 13:53 55.05447 10.31968 38096 ft 470 kts 230°
2026-05-07 13:54 55.01191 10.23302 38131 ft 470 kts 230°
2026-05-07 13:54 54.96961 10.14719 38120 ft 470 kts 230°
2026-05-07 13:55 54.92701 10.06105 38119 ft 469 kts 230°
2026-05-07 13:55 54.88436 9.97508 38144 ft 469 kts 229°
2026-05-07 13:56 54.84173 9.88909 38099 ft 469 kts 231°
2026-05-07 13:56 54.80305 9.79797 38100 ft 469 kts 234°
2026-05-07 13:57 54.76524 9.70596 38098 ft 469 kts 234°
2026-05-07 13:57 54.72747 9.61467 38094 ft 469 kts 234°
2026-05-07 13:58 54.68926 9.52307 38119 ft 469 kts 234°
2026-05-07 13:58 54.65108 9.43203 38098 ft 469 kts 234°
2026-05-07 13:59 54.61272 9.34094 38089 ft 468 kts 234°
2026-05-07 13:59 54.57439 9.25022 38091 ft 467 kts 234°
2026-05-07 14:00 54.53628 9.16035 38101 ft 467 kts 234°
2026-05-07 14:00 54.49781 9.06996 38106 ft 468 kts 234°
2026-05-07 14:01 54.45913 8.97940 38087 ft 469 kts 234°
2026-05-07 14:01 54.42047 8.88921 38073 ft 471 kts 233°
2026-05-07 14:02 54.38154 8.79872 38075 ft 472 kts 233°
2026-05-07 14:02 54.34242 8.70813 38086 ft 473 kts 233°
2026-05-07 14:03 54.30308 8.61736 38081 ft 473 kts 233°
2026-05-07 14:03 54.26401 8.52752 38080 ft 473 kts 233°
2026-05-07 14:04 54.22477 8.43763 38081 ft 472 kts 233°
2026-05-07 14:04 54.18540 8.34775 38086 ft 471 kts 233°
2026-05-07 14:05 54.14608 8.25832 38108 ft 470 kts 233°
2026-05-07 14:05 54.10669 8.16906 38105 ft 470 kts 233°
2026-05-07 14:06 54.06731 8.08013 38088 ft 470 kts 233°
2026-05-07 14:06 54.02789 7.99142 38091 ft 469 kts 233°
2026-05-07 14:07 53.98864 7.90341 38116 ft 470 kts 233°
2026-05-07 14:07 53.94907 7.81502 38077 ft 470 kts 233°
2026-05-07 14:08 53.90947 7.72684 38081 ft 470 kts 232°
2026-05-07 14:08 53.86973 7.63868 38078 ft 470 kts 232°
2026-05-07 14:09 53.82991 7.55064 38095 ft 470 kts 232°
2026-05-07 14:09 53.79003 7.46278 38090 ft 471 kts 232°
2026-05-07 14:10 53.75026 7.37546 38090 ft 470 kts 232°
2026-05-07 14:10 53.71036 7.28818 38101 ft 470 kts 232°
2026-05-07 14:11 53.67046 7.20120 38079 ft 468 kts 232°
2026-05-07 14:11 53.63048 7.11432 38068 ft 468 kts 232°
2026-05-07 14:12 53.59046 7.02769 38094 ft 468 kts 232°
2026-05-07 14:12 53.55035 6.94114 38097 ft 469 kts 232°
2026-05-07 14:13 53.51017 6.85476 38065 ft 469 kts 232°
2026-05-07 14:13 53.47007 6.76883 38077 ft 470 kts 232°
2026-05-07 14:14 53.42962 6.68245 38093 ft 470 kts 232°
2026-05-07 14:14 53.38900 6.59599 38078 ft 470 kts 232°
2026-05-07 14:15 53.34880 6.51075 38074 ft 469 kts 231°
2026-05-07 14:15 53.30835 6.42525 38080 ft 468 kts 231°
2026-05-07 14:16 53.26767 6.33957 38098 ft 469 kts 231°
2026-05-07 14:16 53.22729 6.25479 38083 ft 469 kts 231°
2026-05-07 14:17 53.18656 6.16959 38081 ft 469 kts 231°
2026-05-07 14:17 53.14575 6.08448 38112 ft 469 kts 231°
2026-05-07 14:18 53.10517 6.00015 38096 ft 470 kts 231°
2026-05-07 14:18 53.06422 5.91535 38085 ft 470 kts 231°
2026-05-07 14:19 53.02317 5.83061 38090 ft 470 kts 231°
2026-05-07 14:19 52.98247 5.74688 38110 ft 470 kts 231°
2026-05-07 14:20 52.94137 5.66261 38081 ft 470 kts 231°
2026-05-07 14:20 52.90016 5.57840 38074 ft 469 kts 231°
2026-05-07 14:21 52.85901 5.49458 38103 ft 468 kts 231°
2026-05-07 14:21 52.81813 5.41159 38099 ft 468 kts 231°
2026-05-07 14:22 52.77720 5.32826 38081 ft 467 kts 233°
2026-05-07 14:22 52.73999 5.24027 38070 ft 467 kts 236°
2026-05-07 14:23 52.70378 5.15130 38078 ft 468 kts 236°
2026-05-07 14:23 52.66725 5.06252 38080 ft 468 kts 235°
2026-05-07 14:24 52.63030 4.97383 38079 ft 470 kts 235°
2026-05-07 14:24 52.59332 4.88566 38087 ft 470 kts 235°
2026-05-07 14:25 52.55610 4.79725 38083 ft 470 kts 235°
2026-05-07 14:25 52.51886 4.70906 38067 ft 469 kts 235°
2026-05-07 14:26 52.48160 4.62112 38067 ft 469 kts 235°
2026-05-07 14:26 52.44429 4.53334 38084 ft 468 kts 234°
2026-05-07 14:27 52.40702 4.44597 38092 ft 468 kts 234°
2026-05-07 14:27 52.36989 4.35922 38080 ft 468 kts 234°
2026-05-07 14:28 52.33242 4.27197 38078 ft 468 kts 234°
2026-05-07 14:28 52.29489 4.18488 38100 ft 468 kts 234°
2026-05-07 14:29 52.25729 4.09792 38082 ft 468 kts 234°
2026-05-07 14:29 52.21966 4.01118 38080 ft 468 kts 234°
2026-05-07 14:30 52.18190 3.92446 38106 ft 468 kts 234°
2026-05-07 14:30 52.14415 3.83801 38105 ft 468 kts 234°
2026-05-07 14:31 52.10635 3.75176 38078 ft 468 kts 234°
2026-05-07 14:31 52.06875 3.66625 38087 ft 467 kts 234°
2026-05-07 14:32 52.03089 3.58043 38116 ft 467 kts 234°
2026-05-07 14:32 51.99293 3.49468 38085 ft 467 kts 234°
2026-05-07 14:33 51.96140 3.42366 38083 ft 467 kts 234°
2026-05-07 14:33 51.91725 3.32450 38109 ft 466 kts 234°
2026-05-07 14:34 51.87921 3.23925 38094 ft 466 kts 235°
2026-05-07 14:34 51.85449 3.16121 38109 ft 467 kts 250°
2026-05-07 14:35 51.84031 3.05901 38108 ft 468 kts 263°
2026-05-07 14:35 51.83440 2.95465 38101 ft 469 kts 264°
2026-05-07 14:36 51.82813 2.84955 38091 ft 469 kts 263°
2026-05-07 14:36 51.82122 2.74460 38093 ft 470 kts 263°
2026-05-07 14:37 51.81414 2.63951 38082 ft 470 kts 263°
2026-05-07 14:37 51.80682 2.53345 37260 ft 481 kts 263°
2026-05-07 14:37 51.80313 2.48040 36575 ft 479 kts 263°
2026-05-07 14:38 51.79939 2.42691 35831 ft 477 kts 263°
2026-05-07 14:38 51.79570 2.37446 34968 ft 461 kts 263°
2026-05-07 14:38 51.79214 2.32391 34156 ft 443 kts 263°
2026-05-07 14:38 51.78868 2.27523 33221 ft 428 kts 263°
2026-05-07 14:39 51.78530 2.22799 32534 ft 421 kts 263°
2026-05-07 14:39 51.78215 2.18058 31973 ft 430 kts 264°
2026-05-07 14:39 51.77925 2.13154 31396 ft 447 kts 264°
2026-05-07 14:39 51.77642 2.08182 30796 ft 452 kts 264°
2026-05-07 14:40 51.77355 2.03131 30205 ft 449 kts 264°
2026-05-07 14:40 51.77064 1.98126 29513 ft 444 kts 264°
2026-05-07 14:40 51.76773 1.93200 28900 ft 438 kts 264°
2026-05-07 14:40 51.76479 1.88331 28317 ft 433 kts 264°
2026-05-07 14:41 51.76186 1.83521 27738 ft 427 kts 263°
2026-05-07 14:41 51.75894 1.78768 27158 ft 423 kts 263°
2026-05-07 14:41 51.75604 1.74071 26582 ft 419 kts 263°
2026-05-07 14:41 51.75316 1.69422 26021 ft 415 kts 263°
2026-05-07 14:42 51.75027 1.64807 25474 ft 411 kts 263°
2026-05-07 14:42 51.74739 1.60227 25226 ft 408 kts 263°
2026-05-07 14:42 51.74449 1.55702 24807 ft 415 kts 263°
2026-05-07 14:42 51.74151 1.51101 24194 ft 404 kts 263°
2026-05-07 14:43 51.73863 1.46665 23051 ft 392 kts 263°
2026-05-07 14:43 51.73583 1.42387 22451 ft 377 kts 263°
2026-05-07 14:43 51.73298 1.38058 21878 ft 397 kts 263°
2026-05-07 14:43 51.73003 1.33603 21256 ft 401 kts 263°
2026-05-07 14:44 51.72706 1.29128 20656 ft 399 kts 263°
2026-05-07 14:44 51.72409 1.24687 20054 ft 396 kts 263°
2026-05-07 14:44 51.72114 1.20281 19474 ft 394 kts 263°
2026-05-07 14:44 51.71818 1.15900 18897 ft 391 kts 263°
2026-05-07 14:45 51.71523 1.11541 18319 ft 389 kts 263°
2026-05-07 14:45 51.71227 1.07213 17663 ft 388 kts 263°
2026-05-07 14:45 51.70933 1.02901 17065 ft 385 kts 263°
2026-05-07 14:45 51.70638 0.98632 16494 ft 382 kts 262°
2026-05-07 14:46 51.70346 0.94415 15961 ft 378 kts 262°
2026-05-07 14:46 51.70056 0.90248 15614 ft 370 kts 262°
2026-05-07 14:46 51.69774 0.86200 15264 ft 364 kts 262°
2026-05-07 14:46 51.69500 0.82274 14929 ft 361 kts 262°
2026-05-07 14:47 51.69219 0.78262 14593 ft 359 kts 262°
2026-05-07 14:47 51.68940 0.74302 14251 ft 358 kts 262°
2026-05-07 14:47 51.68658 0.70331 13908 ft 357 kts 262°
2026-05-07 14:47 51.68374 0.66357 13531 ft 356 kts 262°
2026-05-07 14:48 51.68091 0.62411 13170 ft 355 kts 262°
2026-05-07 14:48 51.67807 0.58448 12824 ft 354 kts 262°
2026-05-07 14:48 51.67523 0.54518 12487 ft 353 kts 262°
2026-05-07 14:48 51.67236 0.50580 12132 ft 351 kts 262°
2026-05-07 14:49 51.66957 0.46755 11809 ft 350 kts 262°
2026-05-07 14:49 51.66672 0.42889 11480 ft 345 kts 262°
2026-05-07 14:49 51.66391 0.39081 11139 ft 339 kts 262°
2026-05-07 14:49 51.66115 0.35345 10809 ft 333 kts 262°
2026-05-07 14:50 51.65843 0.31674 10492 ft 327 kts 262°
2026-05-07 14:50 51.65573 0.28065 10172 ft 323 kts 262°
2026-05-07 14:50 51.65308 0.24508 9945 ft 315 kts 262°
2026-05-07 14:50 51.65047 0.21028 9695 ft 309 kts 262°
2026-05-07 14:51 51.64796 0.17716 9618 ft 296 kts 262°
2026-05-07 14:51 51.64555 0.14486 9517 ft 285 kts 262°
2026-05-07 14:51 51.64366 0.11342 9435 ft 274 kts 263°
2026-05-07 14:51 51.64208 0.08389 9344 ft 263 kts 264°
2026-05-07 14:52 51.64054 0.05498 9219 ft 255 kts 264°
2026-05-07 14:52 51.63904 0.02700 9042 ft 248 kts 264°
2026-05-07 14:52 51.63753 -0.00072 8776 ft 245 kts 263°
2026-05-07 14:52 51.63605 -0.02779 8495 ft 244 kts 263°
2026-05-07 14:53 51.63475 -0.05111 8314 ft 240 kts 263°
2026-05-07 14:53 51.63329 -0.07729 8202 ft 236 kts 263°
2026-05-07 14:53 51.63180 -0.10375 8110 ft 240 kts 263°
2026-05-07 14:53 51.63023 -0.13127 8013 ft 244 kts 263°
2026-05-07 14:54 51.62869 -0.15833 7916 ft 244 kts 263°
2026-05-07 14:54 51.62715 -0.18531 7801 ft 242 kts 263°
2026-05-07 14:54 51.62560 -0.21229 7692 ft 240 kts 263°
2026-05-07 14:54 51.62410 -0.23840 7595 ft 239 kts 263°
2026-05-07 14:55 51.62259 -0.26454 7508 ft 238 kts 263°
2026-05-07 14:55 51.62104 -0.29126 7403 ft 237 kts 263°
2026-05-07 14:55 51.61950 -0.31772 7304 ft 236 kts 264°
2026-05-07 14:55 51.61842 -0.34379 7119 ft 239 kts 265°
2026-05-07 14:56 51.61747 -0.37135 6711 ft 247 kts 266°
2026-05-07 14:56 51.61654 -0.39850 6574 ft 239 kts 266°
2026-05-07 14:56 51.61563 -0.42488 6372 ft 234 kts 266°
2026-05-07 14:56 51.61473 -0.45089 6144 ft 230 kts 266°
2026-05-07 14:57 51.61385 -0.47616 6084 ft 225 kts 265°
2026-05-07 14:57 51.61294 -0.50168 6069 ft 231 kts 266°
2026-05-07 14:57 51.61201 -0.52774 6067 ft 235 kts 265°
2026-05-07 14:57 51.61108 -0.55397 6055 ft 234 kts 265°
2026-05-07 14:58 51.61014 -0.58012 5999 ft 233 kts 265°
2026-05-07 14:58 51.60921 -0.60595 5784 ft 231 kts 265°
2026-05-07 14:58 51.60828 -0.63166 5487 ft 230 kts 265°
2026-05-07 14:58 51.60735 -0.65735 5198 ft 229 kts 265°
2026-05-07 14:59 51.60642 -0.68307 4917 ft 228 kts 265°
2026-05-07 14:59 51.60552 -0.70823 4703 ft 224 kts 266°
2026-05-07 14:59 51.60463 -0.73275 4712 ft 219 kts 265°
2026-05-07 14:59 51.60299 -0.75744 4700 ft 224 kts 252°
2026-05-07 15:00 51.59473 -0.77867 4672 ft 232 kts 221°
2026-05-07 15:00 51.58033 -0.78991 4501 ft 231 kts 188°
2026-05-07 15:00 51.56449 -0.78952 4425 ft 226 kts 176°
2026-05-07 15:00 51.54874 -0.78736 4350 ft 232 kts 176°
2026-05-07 15:01 51.53237 -0.78513 4099 ft 237 kts 176°
2026-05-07 15:01 51.51608 -0.78281 3876 ft 233 kts 176°
2026-05-07 15:01 51.50005 -0.78023 3632 ft 227 kts 171°
2026-05-07 15:01 51.48641 -0.76992 3530 ft 214 kts 135°
2026-05-07 15:02 51.47952 -0.74976 3322 ft 208 kts 101°
2026-05-07 15:02 51.47788 -0.72743 3119 ft 198 kts 97°
2026-05-07 15:02 51.47689 -0.70535 2823 ft 197 kts 92°
2026-05-07 15:02 51.47675 -0.68349 2572 ft 194 kts 91°
2026-05-07 15:03 51.47683 -0.66215 2293 ft 190 kts 91°
2026-05-07 15:03 51.47691 -0.64138 2023 ft 180 kts 90°
2026-05-07 15:03 51.47699 -0.62239 1779 ft 166 kts 90°
2026-05-07 15:03 51.47706 -0.60490 1577 ft 150 kts 90°
2026-05-07 15:04 51.47712 -0.58797 1416 ft 153 kts 90°
2026-05-07 15:04 51.47719 -0.57094 1195 ft 152 kts 91°
2026-05-07 15:04 51.47723 -0.55421 960 ft 146 kts 91°
2026-05-07 15:04 51.47724 -0.53814 736 ft 141 kts 89°
2026-05-07 15:05 51.47735 -0.52240 560 ft 142 kts 89°
2026-05-07 15:05 51.47743 -0.50689 358 ft 138 kts 89°
2026-05-07 15:05 51.47749 -0.49194 205 ft 141 kts 89°
2026-05-07 15:05 51.47755 -0.47690 94 ft 137 kts 89°
2026-05-07 15:06 51.47759 -0.46379 96 ft 95 kts 90°
2026-05-07 15:06 51.47761 -0.45711 92 ft 41 kts 90°
2026-05-07 15:06 51.47755 -0.45247 95 ft 33 kts 107°
2026-05-07 15:06 51.47667 -0.45173 95 ft 8 kts 181°
2026-05-07 15:07 51.47610 -0.45174 91 ft 9 kts 180°
2026-05-07 15:07 51.47575 -0.45174 91 ft 0 kts 181°
2026-05-07 15:07 51.47574 -0.45174 91 ft 0 kts 181°
2026-05-07 15:07 51.47565 -0.45175 91 ft 2 kts 181°
2026-05-07 15:08 51.47536 -0.45183 92 ft 5 kts 206°
2026-05-07 15:08 51.47514 -0.45234 94 ft 6 kts 249°
2026-05-07 15:08 51.47508 -0.45316 94 ft 11 kts 269°
2026-05-07 15:08 51.47508 -0.45475 94 ft 15 kts 270°
2026-05-07 15:09 51.47507 -0.45649 94 ft 16 kts 271°
2026-05-07 15:09 51.47517 -0.45795 93 ft 10 kts 274°
2026-05-07 15:09 51.47517 -0.45914 91 ft 11 kts 270°
2026-05-07 15:09 51.47517 -0.46047 91 ft 12 kts 269°
2026-05-07 15:10 51.47517 -0.46185 91 ft 13 kts 270°
2026-05-07 15:10 51.47516 -0.46338 91 ft 14 kts 270°
2026-05-07 15:10 51.47515 -0.46477 91 ft 13 kts 269°
2026-05-07 15:10 51.47515 -0.46615 91 ft 12 kts 270°
2026-05-07 15:11 51.47502 -0.46757 93 ft 13 kts 258°
2026-05-07 15:11 51.47494 -0.46914 93 ft 14 kts 269°
2026-05-07 15:11 51.47492 -0.47076 91 ft 15 kts 269°
2026-05-07 15:11 51.47491 -0.47239 91 ft 15 kts 269°
2026-05-07 15:12 51.47491 -0.47386 91 ft 14 kts 270°
2026-05-07 15:12 51.47491 -0.47543 91 ft 14 kts 269°
2026-05-07 15:12 51.47490 -0.47708 91 ft 15 kts 270°
2026-05-07 15:12 51.47471 -0.47845 96 ft 11 kts 224°
2026-05-07 15:13 51.47435 -0.47868 94 ft 6 kts 191°
2026-05-07 15:13 51.47404 -0.47872 94 ft 7 kts 181°
2026-05-07 15:13 51.47351 -0.47872 94 ft 8 kts 180°
2026-05-07 15:13 51.47266 -0.47871 91 ft 10 kts 180°
2026-05-07 15:14 51.47216 -0.47871 91 ft 11 kts 180°
2026-05-07 15:14 51.47149 -0.47868 92 ft 6 kts 169°
2026-05-07 15:14 51.47122 -0.47795 94 ft 7 kts 92°
2026-05-07 15:14 51.47123 -0.47748 94 ft 5 kts 89°
2026-05-07 15:15 51.47123 -0.47741 94 ft 1 kts 89°
2026-05-07 15:15 51.47123 -0.47732 94 ft 1 kts 89°
2026-05-07 15:15 51.47124 -0.47724 94 ft 0 kts 89°
2026-05-07 15:15 51.47124 -0.47723 94 ft 0 kts 89°